Radiation Dose at Monitoring Post of Fukushima Daini Nuclear Power Station
Date,Time,MP-1(microSv/h),MP-2(microSv/h),MP-3(microSv/h),MP-4(microSv/h),MP-5(microSv/h),MP-6(microSv/h),MP-7(microSv/h),Wind Direction,Wind Velocity(m/s),Rain
2020/07/10,00:00,0.165,0.150,0.244,0.233,0.241,0.130,0.080,southwest,3.1,No
2020/07/10,00:10,0.166,0.151,0.245,0.234,0.241,0.130,0.080,southwest,1.9,No
2020/07/10,00:20,0.165,0.151,0.244,0.235,0.238,0.129,0.080,southwest,3.1,No
2020/07/10,00:30,0.166,0.150,0.244,0.233,0.242,0.130,0.080,southwest,3.6,No
2020/07/10,00:40,0.164,0.151,0.246,0.235,0.240,0.130,0.080,southwest,3.0,No
2020/07/10,00:50,0.166,0.151,0.243,0.236,0.238,0.129,0.081,west-southwest,3.4,No
2020/07/10,01:00,0.167,0.151,0.244,0.232,0.240,0.130,0.080,southwest,2.9,No
2020/07/10,01:10,0.163,0.153,0.245,0.235,0.241,0.131,0.081,southwest,2.7,No
2020/07/10,01:20,0.167,0.151,0.243,0.235,0.239,0.130,0.081,south-southwest,3.1,No
2020/07/10,01:30,0.166,0.151,0.245,0.233,0.242,0.130,0.081,southwest,2.8,No
2020/07/10,01:40,0.166,0.152,0.245,0.236,0.240,0.130,0.080,southwest,2.8,No
2020/07/10,01:50,0.166,0.151,0.243,0.235,0.240,0.129,0.080,west-southwest,2.7,No
2020/07/10,02:00,0.166,0.153,0.245,0.235,0.243,0.130,0.081,west-southwest,1.9,No
2020/07/10,02:10,0.166,0.150,0.244,0.236,0.241,0.129,0.081,-,CALM,No
2020/07/10,02:20,0.168,0.154,0.246,0.233,0.241,0.131,0.080,west,0.6,No
2020/07/10,02:30,0.166,0.152,0.245,0.237,0.244,0.131,0.081,west-northwest,0.9,No
2020/07/10,02:40,0.168,0.151,0.245,0.235,0.241,0.130,0.082,north,1.2,No
2020/07/10,02:50,0.167,0.153,0.247,0.235,0.243,0.131,0.082,north-northwest,2.4,No
2020/07/10,03:00,0.166,0.152,0.244,0.237,0.242,0.131,0.082,north-northwest,3.0,No
2020/07/10,03:10,0.168,0.153,0.246,0.236,0.241,0.130,0.081,north-northwest,2.1,No
2020/07/10,03:20,0.166,0.153,0.246,0.237,0.243,0.132,0.083,north-northwest,1.9,No
2020/07/10,03:30,0.166,0.152,0.245,0.237,0.242,0.131,0.081,north-northwest,2.2,No
2020/07/10,03:40,0.167,0.153,0.246,0.235,0.242,0.132,0.082,north,1.2,No
2020/07/10,03:50,0.166,0.152,0.245,0.239,0.244,0.131,0.082,north-northwest,2.4,No
2020/07/10,04:00,0.167,0.153,0.246,0.235,0.242,0.131,0.082,north-northwest,2.6,No
2020/07/10,04:10,0.167,0.152,0.247,0.236,0.242,0.131,0.082,northwest,2.6,No
2020/07/10,04:20,0.168,0.153,0.244,0.236,0.243,0.131,0.081,northwest,1.1,No
2020/07/10,04:30,0.168,0.153,0.247,0.234,0.240,0.131,0.082,west,1.3,No
2020/07/10,04:40,0.167,0.153,0.244,0.237,0.243,0.132,0.081,west,3.2,No
2020/07/10,04:50,0.168,0.154,0.246,0.236,0.242,0.131,0.081,northwest,2.5,No
2020/07/10,05:00,0.166,0.152,0.245,0.236,0.241,0.130,0.081,north-northwest,2.4,No
2020/07/10,05:10,0.167,0.154,0.245,0.235,0.241,0.131,0.081,northwest,3.4,No
2020/07/10,05:20,0.167,0.152,0.245,0.234,0.240,0.130,0.081,north-northwest,3.8,No
2020/07/10,05:30,0.166,0.152,0.243,0.236,0.243,0.131,0.082,north-northwest,2.0,No
2020/07/10,05:40,0.167,0.153,0.245,0.235,0.241,0.130,0.081,north-northwest,1.3,No
2020/07/10,05:50,0.166,0.151,0.246,0.237,0.240,0.131,0.081,north-northwest,1.6,No
2020/07/10,06:00,0.166,0.151,0.243,0.236,0.238,0.132,0.080,north-northwest,2.4,No
2020/07/10,06:10,0.167,0.151,0.246,0.233,0.242,0.130,0.081,north-northwest,2.4,No
2020/07/10,06:20,0.168,0.153,0.244,0.236,0.240,0.130,0.081,north-northwest,2.7,No
2020/07/10,06:30,0.167,0.152,0.243,0.235,0.241,0.131,0.081,north,2.3,No
2020/07/10,06:40,0.169,0.152,0.246,0.235,0.239,0.132,0.082,-,CALM,No
2020/07/10,06:50,0.168,0.153,0.246,0.236,0.244,0.131,0.083,south-southeast,1.1,No
2020/07/10,07:00,0.165,0.153,0.244,0.237,0.243,0.133,0.083,southeast,2.7,No
2020/07/10,07:10,0.168,0.151,0.242,0.236,0.241,0.131,0.082,east,2.0,No
2020/07/10,07:20,0.167,0.151,0.244,0.233,0.240,0.131,0.080,east,1.0,No
2020/07/10,07:30,0.164,0.153,0.247,0.235,0.244,0.132,0.081,-,CALM,No
2020/07/10,07:40,0.165,0.152,0.244,0.237,0.243,0.131,0.081,-,CALM,No
2020/07/10,07:50,0.167,0.151,0.242,0.235,0.240,0.131,0.081,north,0.8,No
2020/07/10,08:00,0.165,0.150,0.245,0.234,0.238,0.131,0.081,north,1.5,No
2020/07/10,08:10,0.163,0.152,0.244,0.236,0.242,0.131,0.081,north-northwest,1.1,No
2020/07/10,08:20,0.166,0.151,0.243,0.237,0.241,0.131,0.081,northwest,0.9,No
2020/07/10,08:30,0.167,0.151,0.242,0.235,0.239,0.130,0.080,-,CALM,No
2020/07/10,08:40,0.165,0.150,0.244,0.232,0.239,0.131,0.081,-,CALM,No
2020/07/10,08:50,0.164,0.151,0.246,0.234,0.237,0.130,0.081,north,0.6,No
2020/07/10,09:00,0.167,0.151,0.243,0.236,0.241,0.130,0.080,-,CALM,No
2020/07/10,09:10,0.166,0.151,0.242,0.235,0.242,0.130,0.080,-,CALM,No
2020/07/10,09:20,0.164,0.150,0.243,0.232,0.241,0.130,0.080,-,CALM,No
2020/07/10,09:30,0.165,0.151,0.246,0.232,0.239,0.132,0.081,-,CALM,Yes
2020/07/10,09:40,0.168,0.152,0.245,0.232,0.239,0.131,0.081,-,CALM,No
2020/07/10,09:50,0.167,0.152,0.242,0.235,0.239,0.130,0.080,-,CALM,No
2020/07/10,10:00,0.165,0.150,0.241,0.237,0.240,0.130,0.081,north,0.8,No
2020/07/10,10:10,0.165,0.149,0.242,0.236,0.238,0.131,0.080,-,CALM,No
2020/07/10,10:20,0.167,0.152,0.244,0.235,0.239,0.130,0.081,east-northeast,0.6,No
2020/07/10,10:30,0.167,0.151,0.245,0.234,0.238,0.130,0.081,east-southeast,1.2,No
2020/07/10,10:40,0.165,0.152,0.242,0.233,0.239,0.131,0.081,east,0.8,No
2020/07/10,10:50,0.165,0.150,0.241,0.234,0.239,0.131,0.080,-,CALM,No
2020/07/10,11:00,0.164,0.150,0.241,0.232,0.240,0.131,0.081,southeast,1.0,No
2020/07/10,11:10,0.166,0.151,0.242,0.233,0.239,0.129,0.080,southeast,1.1,No
2020/07/10,11:20,0.167,0.153,0.245,0.233,0.241,0.130,0.080,southeast,1.0,No
2020/07/10,11:30,0.166,0.152,0.247,0.233,0.240,0.130,0.081,southeast,1.1,No
2020/07/10,11:40,0.165,0.150,0.246,0.234,0.241,0.130,0.081,southeast,1.1,No
2020/07/10,11:50,0.165,0.151,0.243,0.237,0.240,0.131,0.080,southeast,1.8,No
2020/07/10,12:00,0.167,0.150,0.242,0.237,0.241,0.130,0.080,southeast,2.3,No
2020/07/10,12:10,0.167,0.152,0.243,0.235,0.239,0.130,0.081,east-southeast,1.7,No
2020/07/10,12:20,0.167,0.152,0.244,0.233,0.239,0.129,0.080,east-southeast,0.8,No
2020/07/10,12:30,0.165,0.150,0.248,0.235,0.244,0.129,0.081,east,1.4,No
2020/07/10,12:40,0.164,0.150,0.245,0.234,0.244,0.130,0.080,-,CALM,No
2020/07/10,12:50,0.168,0.151,0.244,0.233,0.243,0.130,0.081,east-southeast,0.7,No
2020/07/10,13:00,0.166,0.151,0.244,0.236,0.241,0.130,0.080,east-southeast,1.1,No
2020/07/10,13:10,0.166,0.152,0.243,0.237,0.240,0.130,0.080,southeast,1.4,No
2020/07/10,13:20,0.166,0.153,0.243,0.236,0.241,0.130,0.079,southeast,1.2,No
2020/07/10,13:30,0.164,0.151,0.243,0.236,0.241,0.131,0.080,southeast,2.0,No
2020/07/10,13:40,0.166,0.152,0.247,0.234,0.240,0.131,0.082,south-southeast,3.0,No
2020/07/10,13:50,0.167,0.151,0.247,0.235,0.242,0.131,0.081,south-southeast,3.7,No
2020/07/10,14:00,0.167,0.153,0.247,0.238,0.244,0.130,0.080,south-southeast,2.3,No
2020/07/10,14:10,0.166,0.152,0.245,0.237,0.242,0.131,0.080,south-southeast,1.9,Yes
2020/07/10,14:20,0.165,0.152,0.244,0.236,0.240,0.130,0.080,south-southeast,1.9,No
2020/07/10,14:30,0.166,0.151,0.244,0.235,0.240,0.130,0.080,south-southeast,2.0,No
2020/07/10,14:40,0.167,0.150,0.247,0.234,0.238,0.131,0.080,southeast,2.7,No
2020/07/10,14:50,0.167,0.149,0.248,0.234,0.239,0.129,0.080,south,2.9,Yes
2020/07/10,15:00,0.167,0.151,0.245,0.235,0.239,0.130,0.080,south,2.4,Yes
2020/07/10,15:10,0.165,0.152,0.244,0.236,0.239,0.130,0.080,south,2.7,No
2020/07/10,15:20,0.166,0.151,0.242,0.235,0.244,0.130,0.080,south-southeast,2.1,Yes
2020/07/10,15:30,0.167,0.150,0.244,0.234,0.242,0.130,0.080,south,2.8,Yes
2020/07/10,15:40,0.166,0.151,0.248,0.234,0.241,0.131,0.080,south,1.3,Yes
2020/07/10,15:50,0.165,0.151,0.245,0.237,0.238,0.129,0.080,south-southwest,1.2,No
2020/07/10,16:00,0.167,0.151,0.243,0.238,0.238,0.129,0.080,south,1.9,No
2020/07/10,16:10,0.167,0.151,0.245,0.234,0.243,0.131,0.081,south,1.4,No
2020/07/10,16:20,0.166,0.151,0.247,0.233,0.244,0.130,0.080,south,1.5,No
2020/07/10,16:30,0.165,0.151,0.244,0.235,0.241,0.129,0.079,south-southwest,1.2,No
2020/07/10,16:40,0.167,0.150,0.242,0.239,0.239,0.128,0.080,south-southwest,1.1,No
2020/07/10,16:50,0.166,0.152,0.246,0.236,0.238,0.130,0.081,-,CALM,No
2020/07/10,17:00,0.165,0.152,0.246,0.234,0.240,0.131,0.081,west-southwest,0.8,No
2020/07/10,17:10,0.166,0.151,0.245,0.234,0.243,0.130,0.079,west,1.0,No
2020/07/10,17:20,0.166,0.152,0.245,0.238,0.241,0.129,0.081,west,0.8,No
2020/07/10,17:30,0.166,0.153,0.245,0.236,0.240,0.130,0.080,southwest,1.0,Yes
2020/07/10,17:40,0.167,0.151,0.245,0.234,0.240,0.130,0.080,northwest,1.3,Yes
2020/07/10,17:50,0.166,0.152,0.243,0.236,0.242,0.130,0.081,north-northeast,0.7,Yes
2020/07/10,18:00,0.165,0.152,0.247,0.236,0.240,0.130,0.080,north,0.7,Yes
2020/07/10,18:10,0.167,0.151,0.245,0.235,0.240,0.130,0.080,north,0.6,Yes
2020/07/10,18:20,0.168,0.152,0.245,0.237,0.243,0.129,0.080,southwest,0.6,Yes
2020/07/10,18:30,0.165,0.151,0.246,0.235,0.240,0.130,0.080,north-northeast,0.8,Yes
2020/07/10,18:40,0.167,0.151,0.243,0.235,0.240,0.131,0.079,north,0.9,Yes
2020/07/10,18:50,0.167,0.152,0.246,0.237,0.243,0.131,0.080,northwest,1.3,No
2020/07/10,19:00,0.164,0.151,0.245,0.235,0.241,0.130,0.080,northwest,2.1,Yes
2020/07/10,19:10,0.167,0.152,0.243,0.235,0.240,0.131,0.081,north-northwest,2.1,No
2020/07/10,19:20,0.166,0.152,0.246,0.237,0.243,0.130,0.080,north-northwest,1.9,No
2020/07/10,19:30,0.165,0.151,0.245,0.236,0.241,0.130,0.080,north,1.4,Yes
2020/07/10,19:40,0.166,0.151,0.244,0.236,0.239,0.131,0.080,north-northwest,1.2,No
2020/07/10,19:50,0.165,0.151,0.246,0.237,0.242,0.130,0.080,northwest,1.1,No
2020/07/10,20:00,0.166,0.151,0.244,0.235,0.241,0.129,0.080,northwest,1.6,No
2020/07/10,20:10,0.167,0.152,0.245,0.237,0.239,0.130,0.081,north-northwest,2.0,No
2020/07/10,20:20,0.164,0.150,0.246,0.236,0.242,0.130,0.081,north-northwest,2.1,No
2020/07/10,20:30,0.166,0.151,0.243,0.235,0.239,0.130,0.081,north-northwest,2.0,No
2020/07/10,20:40,0.167,0.151,0.246,0.236,0.241,0.130,0.081,north,1.4,No
2020/07/10,20:50,0.165,0.151,0.246,0.235,0.242,0.130,0.080,north,1.4,No
2020/07/10,21:00,0.167,0.152,0.245,0.235,0.240,0.130,0.080,north,2.0,No
2020/07/10,21:10,0.166,0.152,0.247,0.236,0.242,0.130,0.080,north-northeast,1.1,No
2020/07/10,21:20,0.166,0.151,0.246,0.234,0.242,0.130,0.080,north-northeast,1.5,No
2020/07/10,21:30,0.167,0.151,0.245,0.234,0.239,0.130,0.080,north-northeast,2.0,No
2020/07/10,21:40,0.166,0.151,0.247,0.237,0.242,0.130,0.080,north,1.5,No
2020/07/10,21:50,0.165,0.153,0.244,0.234,0.242,0.129,0.080,north-northwest,1.4,No
2020/07/10,22:00,0.167,0.151,0.245,0.236,0.239,0.130,0.080,north-northwest,1.9,No
2020/07/10,22:10,0.166,0.150,0.246,0.237,0.241,0.131,0.081,north-northwest,1.7,No
2020/07/10,22:20,0.166,0.152,0.243,0.235,0.242,0.130,0.080,north-northwest,0.9,No
2020/07/10,22:30,0.167,0.151,0.247,0.237,0.239,0.130,0.081,northwest,1.9,No
2020/07/10,22:40,0.165,0.152,0.245,0.237,0.242,0.131,0.080,north-northwest,1.9,No
2020/07/10,22:50,0.167,0.151,0.244,0.234,0.242,0.130,0.080,north-northwest,1.8,No
2020/07/10,23:00,0.166,0.151,0.246,0.237,0.239,0.131,0.080,north,2.0,No
2020/07/10,23:10,0.167,0.152,0.244,0.236,0.242,0.131,0.081,north,1.2,No
2020/07/10,23:20,0.167,0.152,0.244,0.233,0.242,0.131,0.080,north,1.2,No
2020/07/10,23:30,0.166,0.151,0.247,0.236,0.239,0.131,0.081,north,0.9,No
2020/07/10,23:40,0.166,0.152,0.245,0.235,0.242,0.131,0.081,north-northeast,1.3,No
2020/07/10,23:50,0.167,0.152,0.245,0.234,0.241,0.130,0.080,northeast,1.5,No
